date,time,SUV Intensity [MED/Hr],UV Index,Daily total [MED],Since Last [MED]
27/03/2023,00:04:32,0.000,0.0,0.0,0.0
27/03/2023,00:05:32,0.000,0.0,0.0,0.0
27/03/2023,00:06:32,0.000,0.0,0.0,0.0
27/03/2023,00:07:32,0.000,0.0,0.0,0.0
27/03/2023,00:08:32,0.000,0.0,0.0,0.0
27/03/2023,00:09:32,0.000,0.0,0.0,0.0
27/03/2023,00:10:32,-0.000,0.0,0.0,0.0
27/03/2023,00:11:32,0.000,0.0,0.0,0.0
27/03/2023,00:12:32,-0.000,0.0,0.0,0.0
27/03/2023,00:13:32,0.000,0.0,0.0,0.0
27/03/2023,00:14:32,0.000,0.0,0.0,0.0
27/03/2023,00:15:32,0.000,0.0,0.0,0.0
27/03/2023,00:16:32,0.000,0.0,0.0,0.0
27/03/2023,00:17:32,0.000,0.0,0.0,0.0
27/03/2023,00:18:32,0.000,0.0,0.0,0.0
27/03/2023,00:19:32,0.000,0.0,0.0,0.0
27/03/2023,00:20:32,0.000,0.0,0.0,0.0
27/03/2023,00:21:31,0.000,0.0,0.0,0.0
27/03/2023,00:22:32,0.000,0.0,0.0,0.0
27/03/2023,00:23:32,0.000,0.0,0.0,0.0
27/03/2023,00:24:32,0.000,0.0,0.0,0.0
27/03/2023,00:25:32,0.000,0.0,0.0,0.0
27/03/2023,00:26:32,0.000,0.0,0.0,0.0
27/03/2023,00:27:32,0.000,0.0,0.0,0.0
27/03/2023,00:28:32,0.000,0.0,0.0,0.0
27/03/2023,00:29:32,0.000,0.0,0.0,0.0
27/03/2023,00:30:32,0.000,0.0,0.0,0.0
27/03/2023,00:31:32,0.000,0.0,0.0,0.0
27/03/2023,00:32:32,0.000,0.0,0.0,0.0
27/03/2023,00:33:32,0.000,0.0,0.0,0.0
27/03/2023,00:34:32,0.000,0.0,0.0,0.0
27/03/2023,00:35:32,0.000,0.0,0.0,0.0
27/03/2023,00:36:32,0.000,0.0,0.0,0.0
27/03/2023,00:37:32,0.000,0.0,0.0,0.0
27/03/2023,00:38:32,0.000,0.0,0.0,0.0
27/03/2023,00:39:31,0.000,0.0,0.0,0.0
27/03/2023,00:40:32,0.000,0.0,0.0,0.0
27/03/2023,00:41:32,0.000,0.0,0.0,0.0
27/03/2023,00:42:32,0.000,0.0,0.0,0.0
27/03/2023,00:43:32,0.000,0.0,0.0,0.0
27/03/2023,00:44:32,0.000,0.0,0.0,0.0
27/03/2023,00:45:32,0.000,0.0,0.0,0.0
27/03/2023,00:46:32,0.000,0.0,0.0,0.0
27/03/2023,00:47:32,0.000,0.0,0.0,0.0
27/03/2023,00:48:32,0.000,0.0,0.0,0.0
27/03/2023,00:49:32,0.000,0.0,0.0,0.0
27/03/2023,00:50:37,0.000,0.0,0.0,0.0
27/03/2023,00:51:32,0.001,0.0,0.0,0.0
27/03/2023,00:52:32,0.000,0.0,0.0,0.0
27/03/2023,00:53:32,0.000,0.0,0.0,0.0
27/03/2023,00:54:32,0.000,0.0,0.0,0.0
27/03/2023,00:55:32,0.000,0.0,0.0,0.0
27/03/2023,00:56:32,0.000,0.0,0.0,0.0
27/03/2023,00:57:32,0.000,0.0,0.0,0.0
27/03/2023,00:58:32,0.000,0.0,0.0,0.0
27/03/2023,00:59:32,0.000,0.0,0.0,0.0
27/03/2023,01:00:32,0.000,0.0,0.0,0.0
27/03/2023,01:01:31,0.000,0.0,0.0,0.0
27/03/2023,01:02:32,0.000,0.0,0.0,0.0
27/03/2023,01:03:32,0.000,0.0,0.0,0.0
27/03/2023,01:04:32,0.000,0.0,0.0,0.0
27/03/2023,01:05:32,0.000,0.0,0.0,0.0
27/03/2023,01:06:32,0.000,0.0,0.0,0.0
27/03/2023,01:07:32,0.000,0.0,0.0,0.0
27/03/2023,01:08:32,0.000,0.0,0.0,0.0
27/03/2023,01:09:32,0.000,0.0,0.0,0.0
27/03/2023,01:10:32,0.000,0.0,0.0,0.0
27/03/2023,01:11:32,0.000,0.0,0.0,0.0
27/03/2023,01:12:32,0.000,0.0,0.0,0.0
27/03/2023,01:13:32,0.000,0.0,0.0,0.0
27/03/2023,01:14:32,0.000,0.0,0.0,0.0
27/03/2023,01:15:32,0.000,0.0,0.0,0.0
27/03/2023,01:16:32,0.000,0.0,0.0,0.0
27/03/2023,01:17:32,0.000,0.0,0.0,0.0
27/03/2023,01:18:32,0.000,0.0,0.0,0.0
27/03/2023,01:19:32,0.000,0.0,0.0,0.0
27/03/2023,01:20:32,0.000,0.0,0.0,0.0
27/03/2023,01:21:32,0.000,0.0,0.0,0.0
27/03/2023,01:22:32,0.000,0.0,0.0,0.0
27/03/2023,01:23:32,0.000,0.0,0.0,0.0
27/03/2023,01:24:32,0.000,0.0,0.0,0.0
27/03/2023,01:25:32,0.000,0.0,0.0,0.0
27/03/2023,01:26:32,0.000,0.0,0.0,0.0
27/03/2023,01:27:32,0.000,0.0,0.0,0.0
27/03/2023,01:28:32,0.000,0.0,0.0,0.0
27/03/2023,01:29:32,0.000,0.0,0.0,0.0
27/03/2023,01:30:32,0.000,0.0,0.0,0.0
27/03/2023,01:31:32,0.000,0.0,0.0,0.0
27/03/2023,01:32:32,0.000,0.0,0.0,0.0
27/03/2023,01:33:32,0.000,0.0,0.0,0.0
27/03/2023,01:34:32,0.000,0.0,0.0,0.0
27/03/2023,01:35:32,0.001,0.0,0.0,0.0
27/03/2023,01:36:32,0.000,0.0,0.0,0.0
27/03/2023,01:37:33,0.000,0.0,0.0,0.0
27/03/2023,01:38:31,0.000,0.0,0.0,0.0
27/03/2023,01:39:55,0.000,0.0,0.0,0.0
27/03/2023,01:41:32,0.000,0.0,0.0,0.0
27/03/2023,01:42:32,0.000,0.0,0.0,0.0
27/03/2023,01:43:32,0.000,0.0,0.0,0.0
27/03/2023,01:44:32,0.000,0.0,0.0,0.0
27/03/2023,01:45:32,0.000,0.0,0.0,0.0
27/03/2023,01:46:33,0.000,0.0,0.0,0.0
27/03/2023,01:47:32,0.001,0.0,0.0,0.0
27/03/2023,01:48:32,0.000,0.0,0.0,0.0
27/03/2023,01:49:32,0.000,0.0,0.0,0.0
27/03/2023,01:50:32,0.000,0.0,0.0,0.0
27/03/2023,01:51:33,0.000,0.0,0.0,0.0
27/03/2023,01:52:32,0.000,0.0,0.0,0.0
27/03/2023,01:53:32,0.000,0.0,0.0,0.0
27/03/2023,01:54:32,0.000,0.0,0.0,0.0
27/03/2023,01:55:32,0.000,0.0,0.0,0.0
27/03/2023,01:56:32,0.000,0.0,0.0,0.0
27/03/2023,01:57:32,0.000,0.0,0.0,0.0
27/03/2023,01:58:32,0.000,0.0,0.0,0.0
27/03/2023,01:59:33,0.000,0.0,0.0,0.0
27/03/2023,02:00:33,0.000,0.0,0.0,0.0
27/03/2023,02:01:32,0.000,0.0,0.0,0.0
27/03/2023,02:02:32,0.000,0.0,0.0,0.0
27/03/2023,02:03:32,0.000,0.0,0.0,0.0
27/03/2023,02:04:32,0.000,0.0,0.0,0.0
27/03/2023,02:05:32,0.000,0.0,0.0,0.0
27/03/2023,02:06:32,0.000,0.0,0.0,0.0
27/03/2023,02:07:32,0.000,0.0,0.0,0.0
27/03/2023,02:08:32,0.000,0.0,0.0,0.0
27/03/2023,02:09:32,0.000,0.0,0.0,0.0
27/03/2023,02:10:32,0.000,0.0,0.0,0.0
27/03/2023,02:11:32,0.000,0.0,0.0,0.0
27/03/2023,02:12:32,0.000,0.0,0.0,0.0
27/03/2023,02:13:32,0.000,0.0,0.0,0.0
27/03/2023,02:14:33,0.000,0.0,0.0,0.0
27/03/2023,02:15:33,0.000,0.0,0.0,0.0
27/03/2023,02:16:31,0.000,0.0,0.0,0.0
27/03/2023,02:17:32,0.000,0.0,0.0,0.0
27/03/2023,02:18:32,0.000,0.0,0.0,0.0
27/03/2023,02:19:32,0.000,0.0,0.0,0.0
27/03/2023,02:20:32,0.000,0.0,0.0,0.0
27/03/2023,02:21:32,0.000,0.0,0.0,0.0
27/03/2023,02:22:32,0.000,0.0,0.0,0.0
27/03/2023,02:23:32,0.000,0.0,0.0,0.0
27/03/2023,02:24:32,0.000,0.0,0.0,0.0
27/03/2023,02:25:32,0.000,0.0,0.0,0.0
27/03/2023,02:26:32,0.000,0.0,0.0,0.0
27/03/2023,02:27:32,0.000,0.0,0.0,0.0
27/03/2023,02:28:32,0.000,0.0,0.0,0.0
27/03/2023,02:29:32,0.000,0.0,0.0,0.0
27/03/2023,02:30:33,0.000,0.0,0.0,0.0
27/03/2023,02:31:37,0.000,0.0,0.0,0.0
27/03/2023,02:32:33,0.000,0.0,0.0,0.0
27/03/2023,02:33:32,0.000,0.0,0.0,0.0
27/03/2023,02:34:32,0.000,0.0,0.0,0.0
27/03/2023,02:35:32,0.001,0.0,0.0,0.0
27/03/2023,02:36:32,0.001,0.0,0.0,0.0
27/03/2023,02:37:32,0.000,0.0,0.0,0.0
27/03/2023,02:38:32,0.000,0.0,0.0,0.0
27/03/2023,02:39:32,0.000,0.0,0.0,0.0
27/03/2023,02:40:32,0.000,0.0,0.0,0.0
27/03/2023,02:41:32,0.000,0.0,0.0,0.0
27/03/2023,02:42:33,0.000,0.0,0.0,0.0
27/03/2023,02:43:33,0.000,0.0,0.0,0.0
27/03/2023,02:44:32,0.000,0.0,0.0,0.0
27/03/2023,02:45:32,0.001,0.0,0.0,0.0
27/03/2023,02:46:32,0.000,0.0,0.0,0.0
27/03/2023,02:47:33,0.001,0.0,0.0,0.0
27/03/2023,02:48:32,0.000,0.0,0.0,0.0
27/03/2023,02:49:32,0.000,0.0,0.0,0.0
27/03/2023,02:50:32,0.000,0.0,0.0,0.0
27/03/2023,02:51:32,0.001,0.0,0.0,0.0
27/03/2023,02:52:33,0.000,0.0,0.0,0.0
27/03/2023,02:53:32,0.000,0.0,0.0,0.0
27/03/2023,02:54:32,0.000,0.0,0.0,0.0
27/03/2023,02:55:32,0.000,0.0,0.0,0.0
27/03/2023,02:56:32,0.001,0.0,0.0,0.0
27/03/2023,02:57:32,0.000,0.0,0.0,0.0
27/03/2023,02:58:32,0.002,0.0,0.0,0.0
27/03/2023,02:59:32,0.000,0.0,0.0,0.0
27/03/2023,03:00:32,0.000,0.0,0.0,0.0
27/03/2023,03:01:32,0.000,0.0,0.0,0.0
27/03/2023,03:02:32,0.000,0.0,0.0,0.0
27/03/2023,03:03:32,0.000,0.0,0.0,0.0
27/03/2023,03:04:32,0.000,0.0,0.0,0.0
27/03/2023,03:05:32,0.000,0.0,0.0,0.0
27/03/2023,03:06:32,0.000,0.0,0.0,0.0
27/03/2023,03:07:32,0.000,0.0,0.0,0.0
27/03/2023,03:08:32,0.000,0.0,0.0,0.0
27/03/2023,03:09:32,0.000,0.0,0.0,0.0
27/03/2023,03:10:33,0.000,0.0,0.0,0.0
27/03/2023,03:11:32,0.000,0.0,0.0,0.0
27/03/2023,03:12:32,0.000,0.0,0.0,0.0
27/03/2023,03:13:32,0.000,0.0,0.0,0.0
27/03/2023,03:14:32,0.000,0.0,0.0,0.0
27/03/2023,03:15:32,0.000,0.0,0.0,0.0
27/03/2023,03:16:32,0.000,0.0,0.0,0.0
27/03/2023,03:17:32,0.000,0.0,0.0,0.0
27/03/2023,03:18:32,0.000,0.0,0.0,0.0
27/03/2023,03:19:32,0.000,0.0,0.0,0.0
27/03/2023,03:20:33,0.000,0.0,0.0,0.0
27/03/2023,03:21:32,0.000,0.0,0.0,0.0
27/03/2023,03:22:32,0.000,0.0,0.0,0.0
27/03/2023,03:23:33,-0.000,0.0,0.0,0.0
27/03/2023,03:24:32,0.000,0.0,0.0,0.0
27/03/2023,03:25:32,0.000,0.0,0.0,0.0
27/03/2023,03:26:32,0.000,0.0,0.0,0.0
27/03/2023,03:27:32,0.000,0.0,0.0,0.0
27/03/2023,03:28:32,0.001,0.0,0.0,0.0
27/03/2023,03:29:32,0.000,0.0,0.0,0.0
27/03/2023,03:30:32,0.000,0.0,0.0,0.0
27/03/2023,03:31:33,0.000,0.0,0.0,0.0
27/03/2023,03:32:32,0.000,0.0,0.0,0.0
27/03/2023,03:33:33,0.000,0.0,0.0,0.0
27/03/2023,03:34:33,0.000,0.0,0.0,0.0
27/03/2023,03:35:33,0.000,0.0,0.0,0.0
27/03/2023,03:36:32,0.000,0.0,0.0,0.0
27/03/2023,03:37:32,0.000,0.0,0.0,0.0
27/03/2023,03:38:32,0.000,0.0,0.0,0.0
27/03/2023,03:39:32,0.000,0.0,0.0,0.0
27/03/2023,03:40:33,0.000,0.0,0.0,0.0
27/03/2023,03:41:33,0.000,0.0,0.0,0.0
27/03/2023,03:42:32,0.000,0.0,0.0,0.0
27/03/2023,03:43:32,0.000,0.0,0.0,0.0
27/03/2023,03:44:32,0.000,0.0,0.0,0.0
27/03/2023,03:45:32,0.000,0.0,0.0,0.0
27/03/2023,03:46:32,0.000,0.0,0.0,0.0
27/03/2023,03:47:33,0.000,0.0,0.0,0.0
27/03/2023,03:48:32,0.001,0.0,0.0,0.0
27/03/2023,03:49:32,0.000,0.0,0.0,0.0
27/03/2023,03:50:32,0.000,0.0,0.0,0.0
27/03/2023,03:51:32,0.000,0.0,0.0,0.0
27/03/2023,03:52:33,0.000,0.0,0.0,0.0
27/03/2023,03:53:33,0.000,0.0,0.0,0.0
27/03/2023,03:54:32,0.000,0.0,0.0,0.0
27/03/2023,03:55:32,0.000,0.0,0.0,0.0
27/03/2023,03:56:32,0.000,0.0,0.0,0.0
27/03/2023,03:57:32,0.000,0.0,0.0,0.0
27/03/2023,03:58:32,0.000,0.0,0.0,0.0
27/03/2023,03:59:32,0.000,0.0,0.0,0.0
27/03/2023,04:00:33,0.000,0.0,0.0,0.0
27/03/2023,04:01:32,0.000,0.0,0.0,0.0
27/03/2023,04:02:33,0.000,0.0,0.0,0.0
27/03/2023,04:03:32,0.000,0.0,0.0,0.0
27/03/2023,04:04:36,0.000,0.0,0.0,0.0
27/03/2023,04:05:36,0.000,0.0,0.0,0.0
27/03/2023,04:06:34,0.000,0.0,0.0,0.0
27/03/2023,04:07:32,0.000,0.0,0.0,0.0
27/03/2023,04:08:33,0.000,0.0,0.0,0.0
27/03/2023,04:09:32,0.000,0.0,0.0,0.0
27/03/2023,04:10:32,0.000,0.0,0.0,0.0
27/03/2023,04:11:32,0.000,0.0,0.0,0.0
27/03/2023,04:12:33,0.000,0.0,0.0,0.0
27/03/2023,04:13:32,0.000,0.0,0.0,0.0
27/03/2023,04:14:32,0.001,0.0,0.0,0.0
27/03/2023,04:15:32,0.000,0.0,0.0,0.0
27/03/2023,04:16:32,0.000,0.0,0.0,0.0
27/03/2023,04:17:33,0.000,0.0,0.0,0.0
27/03/2023,04:18:33,0.000,0.0,0.0,0.0
27/03/2023,04:19:33,0.000,0.0,0.0,0.0
27/03/2023,04:20:32,0.000,0.0,0.0,0.0
27/03/2023,04:21:32,0.000,0.0,0.0,0.0
27/03/2023,04:22:34,0.001,0.0,0.0,0.0
27/03/2023,04:23:33,0.000,0.0,0.0,0.0
27/03/2023,04:24:33,0.000,0.0,0.0,0.0
27/03/2023,04:25:33,0.000,0.0,0.0,0.0
27/03/2023,04:26:32,0.000,0.0,0.0,0.0
27/03/2023,04:27:32,0.000,0.0,0.0,0.0
27/03/2023,04:28:32,0.000,0.0,0.0,0.0
27/03/2023,04:29:32,0.000,0.0,0.0,0.0
27/03/2023,04:30:32,0.001,0.0,0.0,0.0
27/03/2023,04:31:32,0.000,0.0,0.0,0.0
27/03/2023,04:32:33,0.000,0.0,0.0,0.0
27/03/2023,04:33:33,0.001,0.0,0.0,0.0
27/03/2023,04:34:32,0.000,0.0,0.0,0.0
27/03/2023,04:35:32,0.000,0.0,0.0,0.0
27/03/2023,04:36:32,0.000,0.0,0.0,0.0
27/03/2023,04:37:32,0.000,0.0,0.0,0.0
27/03/2023,04:38:33,0.001,0.0,0.0,0.0
27/03/2023,04:39:32,0.000,0.0,0.0,0.0
27/03/2023,04:40:32,0.000,0.0,0.0,0.0
27/03/2023,04:41:33,0.000,0.0,0.0,0.0
27/03/2023,04:42:33,0.000,0.0,0.0,0.0
27/03/2023,04:43:32,0.000,0.0,0.0,0.0
27/03/2023,04:44:33,0.001,0.0,0.0,0.0
27/03/2023,04:45:32,0.000,0.0,0.0,0.0
27/03/2023,04:46:32,0.001,0.0,0.0,0.0
27/03/2023,04:47:33,0.000,0.0,0.0,0.0
27/03/2023,04:48:33,0.001,0.0,0.0,0.0
27/03/2023,04:49:32,0.000,0.0,0.0,0.0
27/03/2023,04:50:32,0.000,0.0,0.0,0.0
27/03/2023,04:51:32,0.000,0.0,0.0,0.0
27/03/2023,04:52:33,0.000,0.0,0.0,0.0
27/03/2023,04:53:32,0.000,0.0,0.0,0.0
27/03/2023,04:54:32,0.000,0.0,0.0,0.0
27/03/2023,04:55:32,0.001,0.0,0.0,0.0
27/03/2023,04:56:32,0.000,0.0,0.0,0.0
27/03/2023,04:57:33,0.000,0.0,0.0,0.0
27/03/2023,04:58:32,0.001,0.0,0.0,0.0
27/03/2023,04:59:32,0.000,0.0,0.0,0.0
27/03/2023,05:00:32,0.001,0.0,0.0,0.0
27/03/2023,05:01:33,0.000,0.0,0.0,0.0
27/03/2023,05:02:33,0.001,0.0,0.0,0.0
27/03/2023,05:03:32,0.001,0.0,0.0,0.0
27/03/2023,05:04:32,0.000,0.0,0.0,0.0
27/03/2023,05:05:32,0.000,0.0,0.0,0.0
27/03/2023,05:06:32,0.000,0.0,0.0,0.0
27/03/2023,05:07:32,0.001,0.0,0.0,0.0
27/03/2023,05:08:32,0.000,0.0,0.0,0.0
27/03/2023,05:09:32,0.001,0.0,0.0,0.0
27/03/2023,05:10:32,0.001,0.0,0.0,0.0
27/03/2023,05:11:33,0.001,0.0,0.0,0.0
27/03/2023,05:12:33,0.001,0.0,0.0,0.0
27/03/2023,05:13:32,0.000,0.0,0.0,0.0
27/03/2023,05:14:32,0.000,0.0,0.0,0.0
27/03/2023,05:15:33,0.000,0.0,0.0,0.0
27/03/2023,05:16:33,0.001,0.0,0.0,0.0
27/03/2023,05:17:32,0.000,0.0,0.0,0.0
27/03/2023,05:18:32,0.001,0.0,0.0,0.0
27/03/2023,05:19:33,0.000,0.0,0.0,0.0
27/03/2023,05:20:32,0.000,0.0,0.0,0.0
27/03/2023,05:21:33,0.001,0.0,0.0,0.0
27/03/2023,05:22:32,0.001,0.0,0.0,0.0
27/03/2023,05:23:33,0.001,0.0,0.0,0.0
27/03/2023,05:24:33,0.000,0.0,0.0,0.0
27/03/2023,05:25:33,0.000,0.0,0.0,0.0
27/03/2023,05:26:32,0.000,0.0,0.0,0.0
27/03/2023,05:27:32,0.001,0.0,0.0,0.0
27/03/2023,05:28:32,0.000,0.0,0.0,0.0
27/03/2023,05:29:32,0.001,0.0,0.0,0.0
27/03/2023,05:30:32,0.001,0.0,0.0,0.0
27/03/2023,05:31:32,0.000,0.0,0.0,0.0
27/03/2023,05:32:32,0.001,0.0,0.0,0.0
27/03/2023,05:33:32,0.001,0.0,0.0,0.0
27/03/2023,05:34:32,0.001,0.0,0.0,0.0
27/03/2023,05:35:32,0.001,0.0,0.0,0.0
27/03/2023,05:36:33,0.000,0.0,0.0,0.0
27/03/2023,05:37:33,0.001,0.0,0.0,0.0
27/03/2023,05:38:32,0.002,0.0,0.0,0.0
27/03/2023,05:39:32,0.001,0.0,0.0,0.0
27/03/2023,05:40:32,0.001,0.0,0.0,0.0
27/03/2023,05:41:32,0.001,0.0,0.0,0.0
27/03/2023,05:42:32,0.001,0.0,0.0,0.0
27/03/2023,05:43:33,0.001,0.0,0.0,0.0
27/03/2023,05:44:33,0.002,0.0,0.0,0.0
27/03/2023,05:45:33,0.001,0.0,0.0,0.0
27/03/2023,05:46:32,0.002,0.0,0.0,0.0
27/03/2023,05:47:33,0.003,0.0,0.0,0.0
27/03/2023,05:48:32,0.001,0.0,0.0,0.0
27/03/2023,05:49:32,0.002,0.0,0.0,0.0
27/03/2023,05:50:32,0.002,0.0,0.0,0.0
27/03/2023,05:51:33,0.001,0.0,0.0,0.0
27/03/2023,05:52:32,0.001,0.0,0.0,0.0
27/03/2023,05:53:32,0.003,0.0,0.0,0.0
27/03/2023,05:54:33,0.002,0.0,0.0,0.0
27/03/2023,05:55:32,0.002,0.0,0.0,0.0
27/03/2023,05:56:33,0.002,0.0,0.0,0.0
27/03/2023,05:57:33,0.003,0.0,0.0,0.0
27/03/2023,05:58:33,0.004,0.0,0.0,0.0
27/03/2023,05:59:33,0.003,0.0,0.0,0.0
27/03/2023,06:00:32,0.003,0.0,0.0,0.0
27/03/2023,06:01:33,0.004,0.0,0.0,0.0
27/03/2023,06:02:33,0.004,0.0,0.0,0.0
27/03/2023,06:03:33,0.004,0.0,0.0,0.0
27/03/2023,06:04:33,0.004,0.0,0.0,0.0
27/03/2023,06:05:32,0.004,0.0,0.0,0.0
27/03/2023,06:06:55,0.005,0.0,0.0,0.0
27/03/2023,06:09:30,0.005,0.0,0.0,0.0
27/03/2023,06:10:33,0.005,0.0,0.0,0.0
27/03/2023,06:11:32,0.006,0.0,0.0,0.0
27/03/2023,06:12:33,0.007,0.0,0.0,0.0
27/03/2023,06:13:32,0.006,0.0,0.0,0.0
27/03/2023,06:14:32,0.008,0.0,0.0,0.0
27/03/2023,06:15:33,0.008,0.0,0.0,0.0
27/03/2023,06:16:33,0.007,0.0,0.001,0.001
27/03/2023,06:17:33,0.008,0.0,0.001,0.0
27/03/2023,06:18:33,0.008,0.0,0.001,0.0
27/03/2023,06:19:33,0.009,0.0,0.001,0.0
27/03/2023,06:20:33,0.009,0.0,0.001,0.0
27/03/2023,06:21:33,0.009,0.0,0.001,0.0
27/03/2023,06:22:32,0.010,0.0,0.001,0.0
27/03/2023,06:23:32,0.010,0.0,0.002,0.001
27/03/2023,06:24:32,0.011,0.0,0.002,0.0
27/03/2023,06:25:32,0.011,0.0,0.002,0.0
27/03/2023,06:26:33,0.011,0.0,0.002,0.0
27/03/2023,06:27:32,0.011,0.0,0.002,0.0
27/03/2023,06:28:32,0.012,0.0,0.003,0.001
27/03/2023,06:29:32,0.012,0.0,0.003,0.0
27/03/2023,06:30:33,0.013,0.0,0.003,0.0
27/03/2023,06:31:33,0.013,0.0,0.003,0.0
27/03/2023,06:32:33,0.014,0.0,0.003,0.0
27/03/2023,06:33:33,0.014,0.0,0.004,0.001
27/03/2023,06:34:32,0.015,0.0,0.004,0.0
27/03/2023,06:35:33,0.016,0.0,0.004,0.0
27/03/2023,06:36:33,0.016,0.0,0.004,0.0
27/03/2023,06:37:33,0.017,0.0,0.005,0.001
27/03/2023,06:38:32,0.017,0.0,0.005,0.0
27/03/2023,06:39:33,0.017,0.0,0.005,0.0
27/03/2023,06:40:33,0.018,0.0,0.006,0.001
27/03/2023,06:41:33,0.020,0.0,0.006,0.0
27/03/2023,06:42:32,0.019,0.0,0.006,0.0
27/03/2023,06:43:32,0.021,0.0,0.007,0.001
27/03/2023,06:44:33,0.021,0.0,0.007,0.0
27/03/2023,06:45:33,0.022,0.0,0.007,0.0
27/03/2023,06:46:33,0.022,0.0,0.008,0.001
27/03/2023,06:47:32,0.023,0.0,0.008,0.0
27/03/2023,06:48:32,0.024,0.0,0.008,0.0
27/03/2023,06:49:32,0.025,0.0,0.009,0.001
27/03/2023,06:50:33,0.025,0.0,0.009,0.0
27/03/2023,06:51:33,0.026,0.0,0.01,0.001
27/03/2023,06:52:33,0.028,0.0,0.01,0.0
27/03/2023,06:53:32,0.028,0.0,0.011,0.001
27/03/2023,06:54:33,0.029,0.0,0.011,0.0
27/03/2023,06:55:32,0.029,0.0,0.012,0.001
27/03/2023,06:56:32,0.031,0.0,0.012,0.0
27/03/2023,06:57:32,0.032,0.0,0.013,0.001
27/03/2023,06:58:33,0.033,0.0,0.013,0.0
27/03/2023,06:59:33,0.035,0.0,0.014,0.001
27/03/2023,07:00:33,0.035,0.0,0.014,0.0
27/03/2023,07:01:33,0.037,0.0,0.015,0.001
27/03/2023,07:02:32,0.038,0.0,0.015,0.0
27/03/2023,07:03:32,0.039,0.0,0.016,0.001
27/03/2023,07:04:32,0.041,0.0,0.017,0.001
27/03/2023,07:05:33,0.041,0.0,0.017,0.0
27/03/2023,07:06:33,0.043,0.0,0.018,0.001
27/03/2023,07:07:33,0.044,0.0,0.019,0.001
27/03/2023,07:08:33,0.046,0.0,0.02,0.001
27/03/2023,07:09:33,0.046,0.0,0.02,0.0
27/03/2023,07:10:33,0.048,0.0,0.021,0.001
27/03/2023,07:11:32,0.049,0.0,0.022,0.001
27/03/2023,07:12:32,0.051,0.0,0.023,0.001
27/03/2023,07:13:32,0.052,0.0,0.024,0.001
27/03/2023,07:14:33,0.054,0.0,0.025,0.001
27/03/2023,07:15:32,0.056,0.0,0.026,0.001
27/03/2023,07:16:33,0.058,0.0,0.026,0.0
27/03/2023,07:17:33,0.059,0.0,0.027,0.001
27/03/2023,07:18:34,0.059,0.0,0.028,0.001
27/03/2023,07:19:34,0.063,0.0,0.029,0.001
27/03/2023,07:20:33,0.064,0.0,0.03,0.001
27/03/2023,07:21:33,0.066,0.0,0.032,0.002
27/03/2023,07:22:33,0.067,0.0,0.033,0.001
27/03/2023,07:23:33,0.069,0.0,0.034,0.001
27/03/2023,07:24:33,0.071,0.0,0.035,0.001
27/03/2023,07:25:32,0.073,0.0,0.036,0.001
27/03/2023,07:26:33,0.074,0.0,0.037,0.001
27/03/2023,07:27:33,0.076,0.0,0.039,0.002
27/03/2023,07:28:33,0.077,0.0,0.04,0.001
27/03/2023,07:29:33,0.080,0.0,0.041,0.001
27/03/2023,07:30:33,0.082,0.0,0.043,0.002
27/03/2023,07:31:32,0.084,0.0,0.044,0.001
27/03/2023,07:32:32,0.086,0.0,0.045,0.001
27/03/2023,07:33:32,0.088,0.0,0.047,0.002
27/03/2023,07:34:33,0.090,0.0,0.048,0.001
27/03/2023,07:35:33,0.092,0.0,0.05,0.002
27/03/2023,07:36:33,0.094,0.0,0.051,0.001
27/03/2023,07:37:33,0.095,0.0,0.053,0.002
27/03/2023,07:38:32,0.099,0.0,0.055,0.002
27/03/2023,07:39:32,0.101,0.0,0.056,0.001
27/03/2023,07:40:33,0.103,0.0,0.058,0.002
27/03/2023,07:41:33,0.105,0.0,0.06,0.002
27/03/2023,07:42:32,0.108,0.0,0.061,0.001
27/03/2023,07:43:33,0.110,0.0,0.063,0.002
27/03/2023,07:44:33,0.111,0.0,0.065,0.002
27/03/2023,07:45:33,0.114,0.0,0.067,0.002
27/03/2023,07:46:33,0.116,0.0,0.069,0.002
27/03/2023,07:47:33,0.119,0.0,0.071,0.002
27/03/2023,07:48:33,0.122,0.0,0.073,0.002
27/03/2023,07:49:33,0.124,0.0,0.075,0.002
27/03/2023,07:50:32,0.128,0.0,0.077,0.002
27/03/2023,07:51:33,0.132,0.0,0.079,0.002
27/03/2023,07:52:32,0.135,0.0,0.081,0.002
27/03/2023,07:53:32,0.138,0.0,0.084,0.003
27/03/2023,07:54:32,0.141,0.0,0.086,0.002
27/03/2023,07:55:33,0.145,0.0,0.088,0.002
27/03/2023,07:56:32,0.144,0.0,0.091,0.003
27/03/2023,07:57:32,0.147,0.0,0.093,0.002
27/03/2023,07:58:33,0.149,0.0,0.096,0.003
27/03/2023,07:59:32,0.154,0.0,0.098,0.002
27/03/2023,08:00:34,0.159,0.0,0.101,0.003
27/03/2023,08:01:34,0.161,0.0,0.104,0.003
27/03/2023,08:02:33,0.163,0.0,0.106,0.002
27/03/2023,08:03:32,0.171,0.0,0.109,0.003
27/03/2023,08:04:33,0.170,0.0,0.112,0.003
27/03/2023,08:05:32,0.170,0.0,0.115,0.003
27/03/2023,08:06:33,0.174,0.0,0.118,0.003
27/03/2023,08:07:33,0.176,0.0,0.12,0.002
27/03/2023,08:08:33,0.187,0.0,0.123,0.003
27/03/2023,08:09:33,0.183,0.0,0.127,0.004
27/03/2023,08:10:32,0.189,0.0,0.13,0.003
27/03/2023,08:11:32,0.196,0.0,0.133,0.003
27/03/2023,08:12:33,0.204,0.0,0.136,0.003
27/03/2023,08:13:33,0.208,0.0,0.14,0.004
27/03/2023,08:14:33,0.207,0.0,0.143,0.003
27/03/2023,08:15:32,0.210,0.0,0.147,0.004
27/03/2023,08:16:32,0.207,0.0,0.15,0.003
27/03/2023,08:17:32,0.226,1.0,0.154,0.004
27/03/2023,08:18:33,0.235,1.0,0.157,0.003
27/03/2023,08:19:33,0.222,1.0,0.161,0.004
27/03/2023,08:20:33,0.239,1.0,0.165,0.004
27/03/2023,08:21:33,0.236,1.0,0.169,0.004
27/03/2023,08:22:33,0.231,1.0,0.173,0.004
27/03/2023,08:23:33,0.236,1.0,0.177,0.004
27/03/2023,08:24:33,0.255,1.0,0.181,0.004
27/03/2023,08:25:32,0.256,1.0,0.185,0.004
27/03/2023,08:26:33,0.252,1.0,0.189,0.004
27/03/2023,08:27:33,0.260,1.0,0.194,0.005
27/03/2023,08:28:33,0.261,1.0,0.198,0.004
27/03/2023,08:29:33,0.270,1.0,0.203,0.005
27/03/2023,08:30:33,0.276,1.0,0.207,0.004
27/03/2023,08:31:33,0.281,1.0,0.212,0.005
27/03/2023,08:32:33,0.283,1.0,0.216,0.004
27/03/2023,08:33:33,0.288,1.0,0.221,0.005
27/03/2023,08:34:32,0.292,1.0,0.226,0.005
27/03/2023,08:35:32,0.296,1.0,0.231,0.005
27/03/2023,08:36:32,0.300,1.0,0.236,0.005
27/03/2023,08:37:33,0.303,1.0,0.241,0.005
27/03/2023,08:38:33,0.307,1.0,0.246,0.005
27/03/2023,08:39:33,0.312,1.0,0.251,0.005
27/03/2023,08:40:33,0.316,1.0,0.256,0.005
27/03/2023,08:41:33,0.319,1.0,0.262,0.006
27/03/2023,08:42:33,0.324,1.0,0.267,0.005
27/03/2023,08:43:32,0.328,1.0,0.272,0.005
27/03/2023,08:44:32,0.332,1.0,0.278,0.006
27/03/2023,08:45:33,0.336,1.0,0.284,0.006
27/03/2023,08:46:32,0.341,1.0,0.289,0.005
27/03/2023,08:47:32,0.345,1.0,0.295,0.006
27/03/2023,08:48:33,0.350,1.0,0.301,0.006
27/03/2023,08:49:32,0.354,1.0,0.307,0.006
27/03/2023,08:50:33,0.359,1.0,0.313,0.006
27/03/2023,08:51:33,0.363,1.0,0.319,0.006
27/03/2023,08:52:33,0.368,1.0,0.325,0.006
27/03/2023,08:53:33,0.372,1.0,0.331,0.006
27/03/2023,08:54:33,0.377,1.0,0.337,0.006
27/03/2023,08:55:33,0.381,1.0,0.344,0.007
27/03/2023,08:56:32,0.386,1.0,0.35,0.006
27/03/2023,08:57:33,0.390,1.0,0.356,0.006
27/03/2023,08:58:33,0.396,1.0,0.363,0.007
27/03/2023,08:59:33,0.400,1.0,0.37,0.007
27/03/2023,09:00:32,0.404,1.0,0.376,0.006
27/03/2023,09:01:33,0.408,1.0,0.383,0.007
27/03/2023,09:02:33,0.413,1.0,0.39,0.007
27/03/2023,09:03:33,0.418,1.0,0.397,0.007
27/03/2023,09:04:33,0.423,1.0,0.404,0.007
27/03/2023,09:05:33,0.428,1.0,0.411,0.007
27/03/2023,09:06:33,0.433,1.0,0.418,0.007
27/03/2023,09:07:33,0.439,1.0,0.425,0.007
27/03/2023,09:08:32,0.443,1.0,0.433,0.008
27/03/2023,09:09:33,0.448,1.0,0.44,0.007
27/03/2023,09:10:33,0.453,1.0,0.447,0.007
27/03/2023,09:11:33,0.458,1.0,0.455,0.008
27/03/2023,09:12:33,0.463,1.0,0.463,0.008
27/03/2023,09:13:32,0.467,1.0,0.471,0.008
27/03/2023,09:14:33,0.474,1.0,0.479,0.008
27/03/2023,09:15:32,0.477,1.0,0.486,0.007
27/03/2023,09:16:33,0.483,1.0,0.494,0.008
27/03/2023,09:17:33,0.488,1.0,0.502,0.008
27/03/2023,09:18:33,0.493,1.0,0.511,0.009
27/03/2023,09:19:33,0.498,1.0,0.519,0.008
27/03/2023,09:20:33,0.503,1.0,0.527,0.008
27/03/2023,09:21:32,0.510,1.0,0.536,0.009
27/03/2023,09:22:33,0.513,1.0,0.544,0.008
27/03/2023,09:23:33,0.518,1.0,0.553,0.009
27/03/2023,09:24:33,0.523,1.0,0.562,0.009
27/03/2023,09:25:32,0.527,1.0,0.57,0.008
27/03/2023,09:26:33,0.532,1.0,0.579,0.009
27/03/2023,09:27:33,0.538,1.0,0.588,0.009
27/03/2023,09:28:33,0.545,1.0,0.597,0.009
27/03/2023,09:29:32,0.549,1.0,0.606,0.009
27/03/2023,09:30:33,0.554,1.0,0.615,0.009
27/03/2023,09:31:32,0.559,1.0,0.624,0.009
27/03/2023,09:32:33,0.563,1.0,0.634,0.01
27/03/2023,09:33:33,0.571,1.0,0.643,0.009
27/03/2023,09:34:33,0.574,1.0,0.653,0.01
27/03/2023,09:35:33,0.581,1.0,0.663,0.01
27/03/2023,09:36:33,0.585,1.0,0.673,0.01
27/03/2023,09:37:32,0.592,1.0,0.682,0.009
27/03/2023,09:38:33,0.598,1.0,0.692,0.01
27/03/2023,09:39:33,0.601,1.0,0.702,0.01
27/03/2023,09:40:33,0.607,1.0,0.712,0.01
27/03/2023,09:41:33,0.612,1.0,0.723,0.011
27/03/2023,09:42:33,0.617,1.0,0.733,0.01
27/03/2023,09:43:33,0.623,1.0,0.743,0.01
27/03/2023,09:44:33,0.628,1.0,0.753,0.01
27/03/2023,09:45:33,0.633,1.0,0.764,0.011
27/03/2023,09:46:33,0.639,1.0,0.774,0.01
27/03/2023,09:47:33,0.644,1.0,0.785,0.011
27/03/2023,09:48:33,0.650,1.0,0.796,0.011
27/03/2023,09:49:33,0.654,2.0,0.807,0.011
27/03/2023,09:50:33,0.656,2.0,0.817,0.01
27/03/2023,09:51:33,0.662,2.0,0.828,0.011
27/03/2023,09:52:33,0.669,2.0,0.84,0.012
27/03/2023,09:53:33,0.675,2.0,0.851,0.011
27/03/2023,09:54:33,0.679,2.0,0.862,0.011
27/03/2023,09:55:32,0.685,2.0,0.873,0.011
27/03/2023,09:56:33,0.691,2.0,0.885,0.012
27/03/2023,09:57:33,0.697,2.0,0.896,0.011
27/03/2023,09:58:32,0.702,2.0,0.908,0.012
27/03/2023,09:59:31,0.708,2.0,0.919,0.011
27/03/2023,10:00:32,0.712,2.0,0.932,0.013
27/03/2023,10:01:33,0.717,2.0,0.944,0.012
27/03/2023,10:02:33,0.722,2.0,0.956,0.012
27/03/2023,10:03:33,0.725,2.0,0.968,0.012
27/03/2023,10:04:33,0.730,2.0,0.98,0.012
27/03/2023,10:05:33,0.735,2.0,0.992,0.012
27/03/2023,10:06:33,0.739,2.0,1.004,0.012
27/03/2023,10:07:33,0.744,2.0,1.017,0.013
27/03/2023,10:08:33,0.746,2.0,1.029,0.012
27/03/2023,10:09:33,0.751,2.0,1.041,0.012
27/03/2023,10:10:33,0.757,2.0,1.054,0.013
27/03/2023,10:11:33,0.762,2.0,1.067,0.013
27/03/2023,10:12:33,0.766,2.0,1.08,0.013
27/03/2023,10:13:32,0.775,2.0,1.092,0.012